STARLINK-35197, 66193

Orbit data source: Space-Track

STARLINK-35197, 66193 is a payload satellite owned by SpaceX/Seattle (US) in LEO that was launched on Sun, 26 Oct 2025 UTC via an FALCON 9 launch vehicle from the Air Force Eastern Test Range (AFETR). Payload-class satellites include a variety of spacecraft equipped with specific instruments for various scientific and technological missions. These include communications satellites like Starlink; space stations such as the ISS; scientific satellites like the Hubble; Earth observation satellites from companies like Planet Labs, Umbra, and HawkEye 360; GPS; miniature CubeSats for education and research; and military/defense satellites.

Loading next visibility...
Identifier
66193, 2025-243S
Orbit
LEO
Country
Flag of USUS
Related business
Manufacturer
SpaceX/Seattle
Mission
Operational Commercial Communications
Bus & Motor
STARLINK V2MO, Unknown motor
Mass
575 kg wet, ~530 kg dry
Launch date (UTC)
2025-10-26 (4 months ago)
Launch vehicle
FALCON 9
Launch site
Air Force Eastern Test Range (AFETR)
Object type
Payload
Rocket body
Debris
Shape & HBR
Box + 2 Pan, 17.7 m
Radar Cross Section
36.964 m²

Expand to show TLE details & history
Last TLE update: 9 hours ago

TLE from 9 hours ago
0 STARLINK-35197
1 66193U 25243S   26061.75418239  .00020566  00000-0  70447-3 0  9999
2 66193  53.1570 277.3449 0001015  65.5094 294.6012 15.30205091 19594
Epoch: 2026-03-02T18:06Z
TLE epoch observation values (Epoch: 2026-03-02T18:06:01.358Z)
Latitude
-0.00006°
Longitude
-154.70386°
Altitude
475.81 km
Speed
7.629 km/s
True Right ascension
18h 29m 22s
True Declination
0° 00' 00"
Sunlit
Object was in daylight at epoch
Visualization orbit readout
Latitude
Unknown
Longitude
Unknown
Altitude
Unknown
Speed
Unknown
Apparent Right ascension
Unknown
Apparent Declination
Unknown
Sunlit
N/A
Visualization observer readout
Local Sidereal Time
07:12:23
Azimuth
Unknown
Elevation
Unknown
Doppler factor
Unknown
Orbital elements
Apogee altitude
476.152 km
Perigee altitude
474.761 km
Semi-major axis
6,853.594 km
Eccentricity
0.0001
Inclination
53.157°
RAAN
277.3449°
Arg. of periapsis
65.5094°
True anomaly
294.59062°
Mean anomaly
294.6012°
Eccentric anomaly
294.59591°
Mean motion
3.8253 °/min
Orbital period
94.11 mins
BSTAR
0.00070447
Loading maneuver chart data...
Computing Atmospheric mass density...
Loading historical data...
Loading historical data...
Loading historical data...
Loading historical data...
Loading historical data...
Loading historical data...
Loading historical data...

Documentation

Showing up to 5 results
|